Hourly Data Report for October 30, 2015

All times are specified in Local Standard Time (LST). Add 1 hour to adjust for Daylight Saving Time where and when it is observed.

PANGNIRTUNG
NUNAVUT

66°08'36.300" N
65°42'40.500" W
22.60 m
2403049
71826
WXP

Download Data

Hourly Data (October 2015)
Hourly Data Report for October 30, 2015
Temp Definition
°C
Dew Point Temp Definition
°C
Rel Hum Definition
%
Wind Dir Definition
10's deg

Wind Spd Definition
km/h
Visibility Definition
km
Stn Press Definition
kPa
Hmdx Definition


Wind Chill Definition


Weather Definition


TIME
00:00 -13.0 -23.9 40 8 10   100.03   -19 LegendNANA
01:00 -11.4 -23.1 37 8 4   100.01   -14 LegendNANA
02:00 -12.0 -22.5 41 8 7   100.00   -16 LegendNANA
03:00 -10.7 -21.3 41 10 7   99.98   -15 LegendNANA
04:00 -9.3 -20.1 41 9 10   99.91   -14 LegendNANA
05:00 -8.5 -19.5 40 8 9   99.87   -13 LegendNANA
06:00 -7.6 -19.1 39 9 7   99.83   -11 LegendNANA
07:00 -7.7 -16.9 48 9 5   99.81   -10 LegendNANA
08:00 -7.5 -17.2 45 8 6   99.79   -11 LegendNANA
09:00 -7.3 -16.9 47 10 9   99.78   -12 LegendNANA
10:00 -7.5 -18.1 42 8 19   99.73   -15 LegendNANA
11:00 -7.0 -16.4 47 12 6   99.69   -10 LegendNANA
12:00 -7.2 -16.3 48 8 7   99.68   -11 LegendNANA
13:00 -7.8 -16.4 50 7 4   99.65   -10 LegendNANA
14:00 -7.8 -18.1 43 8 10   99.63   -13 LegendNANA
15:00 -8.0 -18.4 43 12 8   99.63   -12 LegendNANA
16:00 -7.6 -18.9 40 17 2   99.60   -9 LegendNANA
17:00 -7.9 -20.7 35 10 9   99.59   -12 LegendNANA
18:00 -8.0 -19.6 39 9 10   99.58   -13 LegendNANA
19:00 -8.4 -18.9 43 8 8   99.58   -13 LegendNANA
20:00 -7.8 -18.1 43 12 8   99.56   -12 LegendNANA
21:00 -7.5 -17.5 44 11 4   99.52   -10 LegendNANA
22:00 -8.2 -14.8 59 26 2   99.49   -9 LegendNANA
23:00 -8.4 -14.3 62 22 1   99.47   -9 LegendNANA

Notes on Data Quality.

Legend

  • E = Estimated
  • M = Missing
  • NA = Not Available
  • ‡ = Partner data that is not subject to review by the National Climate Archives
Date modified: